Fergus Falls, MN

10:32 AM CST on December 14, 2019 (GMT -0600)
Fergus Falls Municipal-Mickelson

Weather History for KFFM - October, 2019

Change the Weather History Date:

Tuesday, October 22, 2019

  Actual Average Record
Temperature  
Mean Temperature 38 °F -  
Max Temperature 42 °F 53 °F 74 °F (1963)
Min Temperature 33 °F 34 °F 21 °F (1987)
Degree Days  
Heating Degree Days 26    
Moisture  
Dew Point 32 °F    
Average Humidity 80    
Maximum Humidity 100    
Minimum Humidity 61    
Precipitation  
Precipitation 0.00 in - - ()
Sea Level Pressure  
Sea Level Pressure 29.62 in    
Wind  
Wind Speed 22 mph ()    
Max Wind Speed 30 mph    
Max Gust Speed 48 mph    
Visibility 10.0 miles    
Events Rain    
Averages and records for this station are not official NWS values.
T = Trace of Precipitation, MM = Missing Value Source: Averaged Metar Reports

Daily Weather History Graph

Daily Weather History Graph

Search for Another Location

Airport or City:

Astronomy

Oct. 22, 2019 Rise Set
Actual Time 7:51 AM CDT 6:26 PM CDT
Civil Twilight 7:20 AM CDT 6:56 PM CDT
Nautical Twilight 6:45 AM CDT 7:31 PM CDT
Astronomical Twilight 6:10 AM CDT 8:06 PM CDT
Moon 12:33 AM CDT (10/22) 4:02 PM CDT (10/22)
Length of Visible Light 11h 36m
Length of Day
10h 34m
Last Quarter, 37% of the Moon is Illuminated
Oct 22
Last Quarter
Oct 27
New
Nov 4
First Quarter
Nov 12
Full
Nov 19
Last Quarter

Hourly Weather History & Observations

Time (CDT) Temp. Windchill Dew Point Humidity Pressure Visibility Wind Dir Wind Speed Gust Speed Precip Events Conditions
12:17 AM 39.2 °F 27.4 °F 39.2 °F 100% 29.50 in 10.0 mi NNW 29.9 mph 44.9 mph N/A   Overcast
12:35 AM 39.2 °F 27.4 °F 39.2 °F 100% 29.50 in 10.0 mi NNW 29.9 mph 48.3 mph N/A   Overcast
12:55 AM 37.4 °F 25.2 °F 37.4 °F 100% 29.50 in 10.0 mi NNW 28.8 mph 39.1 mph N/A   Overcast
12:56 AM 37.4 °F 25.0 °F 37.4 °F 100% 29.50 in 10.0 mi NNW 29.9 mph 39.1 mph N/A   Overcast
1:19 AM 37.4 °F 27.2 °F 37.4 °F 100% 29.51 in 10.0 mi NNW 19.6 mph 42.6 mph N/A   Overcast
1:36 AM 37.4 °F 25.0 °F 37.4 °F 100% 29.51 in 10.0 mi NNW 29.9 mph 41.4 mph N/A   Overcast
1:56 AM 37.4 °F 25.6 °F 37.4 °F 100% 29.52 in 10.0 mi NNW 26.5 mph 40.3 mph N/A   Overcast
2:15 AM 37.4 °F 26.9 °F 37.4 °F 100% 29.52 in 10.0 mi NNW 20.7 mph 39.1 mph N/A   Overcast
2:16 AM 37.4 °F 26.4 °F 37.4 °F 100% 29.52 in 10.0 mi NNW 23.0 mph 39.1 mph N/A   Overcast
2:35 AM 37.4 °F 26.6 °F 37.4 °F 100% 29.53 in 10.0 mi NNW 21.9 mph 34.5 mph N/A   Overcast
2:39 AM 37.4 °F 26.1 °F 37.4 °F 100% 29.53 in 10.0 mi NNW 24.2 mph 34.5 mph N/A   Overcast
2:57 AM 37.4 °F 25.2 °F 37.4 °F 100% 29.53 in 10.0 mi NNW 28.8 mph 35.7 mph N/A   Overcast
3:16 AM 37.4 °F 25.6 °F 35.6 °F 93% 29.53 in 10.0 mi NNW 26.5 mph 39.1 mph N/A   Overcast
3:35 AM 37.4 °F 25.6 °F 35.6 °F 93% 29.53 in 10.0 mi NNW 26.5 mph 40.3 mph N/A   Overcast
3:36 AM 37.4 °F 25.4 °F 35.6 °F 93% 29.53 in 10.0 mi NNW 27.6 mph 40.3 mph N/A   Overcast
3:55 AM 37.4 °F 25.2 °F 35.6 °F 93% 29.53 in 10.0 mi NNW 28.8 mph 41.4 mph N/A   Overcast
4:17 AM 37.4 °F 25.6 °F 35.6 °F 93% 29.53 in 10.0 mi NNW 26.5 mph 34.5 mph N/A   Overcast
4:35 AM 37.4 °F 25.0 °F 35.6 °F 93% 29.53 in 10.0 mi NNW 29.9 mph 42.6 mph N/A   Overcast
4:55 AM 37.4 °F 25.4 °F 35.6 °F 93% 29.54 in 10.0 mi NNW 27.6 mph 36.8 mph N/A   Overcast
4:56 AM 37.4 °F 25.4 °F 35.6 °F 93% 29.54 in 10.0 mi NNW 27.6 mph 35.7 mph N/A   Overcast
5:15 AM 37.4 °F 25.0 °F 35.6 °F 93% 29.54 in 10.0 mi NNW 29.9 mph 38.0 mph N/A   Overcast
5:37 AM 37.4 °F 25.9 °F 33.8 °F 87% 29.55 in 10.0 mi NNW 25.3 mph 40.3 mph N/A   Overcast
5:55 AM 37.4 °F 25.4 °F 33.8 °F 87% 29.55 in 10.0 mi NNW 27.6 mph 41.4 mph N/A   Overcast
6:15 AM 37.4 °F 27.2 °F 33.8 °F 87% 29.56 in 10.0 mi NW 19.6 mph 27.6 mph N/A   Overcast
6:16 AM 37.4 °F 26.9 °F 33.8 °F 87% 29.56 in 10.0 mi NW 20.7 mph 27.6 mph N/A   Overcast
6:35 AM 37.4 °F 25.4 °F 33.8 °F 87% 29.56 in 10.0 mi NW 27.6 mph 34.5 mph N/A   Overcast
6:58 AM 37.4 °F 26.1 °F 32.0 °F 81% 29.57 in 10.0 mi NW 24.2 mph 39.1 mph N/A   Overcast
7:16 AM 35.6 °F 24.0 °F 32.0 °F 87% 29.57 in 10.0 mi NNW 23.0 mph 32.2 mph N/A   Overcast
7:35 AM 35.6 °F 23.7 °F 32.0 °F 87% 29.57 in 10.0 mi NNW 24.2 mph 38.0 mph N/A   Overcast
7:55 AM 35.6 °F 23.7 °F 32.0 °F 87% 29.57 in 10.0 mi NW 24.2 mph 33.4 mph N/A   Overcast
8:15 AM 35.6 °F 24.5 °F 32.0 °F 87% 29.57 in 10.0 mi NNW 20.7 mph 33.4 mph N/A   Overcast
8:19 AM 35.6 °F 23.7 °F 32.0 °F 87% 29.57 in 10.0 mi NNW 24.2 mph 33.4 mph N/A   Overcast
8:38 AM 35.6 °F 24.5 °F 32.0 °F 87% 29.58 in 10.0 mi NW 20.7 mph 33.4 mph N/A   Overcast
8:55 AM 35.6 °F 24.5 °F 30.2 °F 81% 29.58 in 10.0 mi NW 20.7 mph 33.4 mph N/A   Overcast
9:15 AM 35.6 °F 23.4 °F 30.2 °F 81% 29.59 in 10.0 mi NW 25.3 mph 34.5 mph N/A   Overcast
9:16 AM 35.6 °F 23.4 °F 30.2 °F 81% 29.59 in 10.0 mi NW 25.3 mph 34.5 mph N/A   Overcast
9:35 AM 35.6 °F 23.4 °F 32.0 °F 87% 29.59 in 10.0 mi NW 25.3 mph 35.7 mph N/A Rain Light Rain
9:58 AM 35.6 °F 24.8 °F 32.0 °F 87% 29.60 in 10.0 mi NW 19.6 mph 28.8 mph N/A   Overcast
10:16 AM 35.6 °F 24.8 °F 30.2 °F 81% 29.61 in 10.0 mi NW 19.6 mph 31.1 mph N/A   Overcast
10:35 AM 35.6 °F 24.0 °F 30.2 °F 81% 29.61 in 10.0 mi NW 23.0 mph 35.7 mph N/A   Overcast
10:36 AM 35.6 °F 23.4 °F 30.2 °F 81% 29.61 in 10.0 mi NW 25.3 mph 35.7 mph N/A   Overcast
10:55 AM 35.6 °F 23.4 °F 30.2 °F 81% 29.61 in 10.0 mi NW 25.3 mph 34.5 mph N/A   Overcast
10:56 AM 35.6 °F 24.0 °F 30.2 °F 81% 29.61 in 10.0 mi NW 23.0 mph 34.5 mph N/A   Overcast
11:18 AM 37.4 °F 26.9 °F 30.2 °F 75% 29.62 in 10.0 mi NW 20.7 mph 29.9 mph N/A   Overcast
11:36 AM 37.4 °F 26.1 °F 30.2 °F 75% 29.62 in 10.0 mi NW 24.2 mph 31.1 mph N/A   Overcast
11:55 AM 37.4 °F 26.6 °F 30.2 °F 75% 29.62 in 10.0 mi NW 21.9 mph 31.1 mph N/A   Overcast
12:15 PM 37.4 °F 26.1 °F 30.2 °F 75% 29.62 in 10.0 mi NW 24.2 mph 36.8 mph N/A   Overcast
12:16 PM 37.4 °F 25.9 °F 30.2 °F 75% 29.62 in 10.0 mi NW 25.3 mph 36.8 mph N/A   Overcast
12:35 PM 37.4 °F 26.1 °F 30.2 °F 75% 29.62 in 10.0 mi NW 24.2 mph 32.2 mph N/A   Overcast
12:39 PM 37.4 °F 25.4 °F 30.2 °F 75% 29.62 in 10.0 mi NW 27.6 mph 34.5 mph N/A   Overcast
12:57 PM 37.4 °F 25.6 °F 30.2 °F 75% 29.62 in 10.0 mi NW 26.5 mph 36.8 mph N/A   Overcast
1:15 PM 37.4 °F 25.0 °F 30.2 °F 75% 29.62 in 10.0 mi NW 29.9 mph 36.8 mph N/A   Overcast
1:35 PM 39.2 °F 28.0 °F 30.2 °F 70% 29.62 in 10.0 mi NW 26.5 mph 34.5 mph N/A   Overcast
1:36 PM 39.2 °F 27.8 °F 30.2 °F 70% 29.62 in 10.0 mi NW 27.6 mph 34.5 mph N/A   Overcast
1:55 PM 39.2 °F 28.7 °F 30.2 °F 70% 29.62 in 10.0 mi NW 23.0 mph 31.1 mph N/A   Overcast
1:56 PM 39.2 °F 28.3 °F 30.2 °F 70% 29.62 in 10.0 mi NW 25.3 mph 31.1 mph N/A   Overcast
2:18 PM 39.2 °F 28.5 °F 30.2 °F 70% 29.63 in 10.0 mi NW 24.2 mph 31.1 mph N/A   Overcast
2:36 PM 39.2 °F 29.6 °F 30.2 °F 70% 29.63 in 10.0 mi NW 19.6 mph 26.5 mph N/A   Overcast
2:56 PM 39.2 °F 28.5 °F 30.2 °F 70% 29.63 in 10.0 mi NW 24.2 mph 29.9 mph N/A   Overcast
3:15 PM 41.0 °F 32.2 °F 32.0 °F 70% 29.64 in 10.0 mi NW 18.4 mph 27.6 mph N/A   Overcast
3:35 PM 41.0 °F 30.7 °F 30.2 °F 65% 29.64 in 10.0 mi NW 25.3 mph 32.2 mph N/A   Overcast
3:39 PM 41.0 °F 31.9 °F 30.2 °F 65% 29.65 in 10.0 mi NW 19.6 mph 32.2 mph N/A   Overcast
3:58 PM 41.0 °F 32.5 °F 32.0 °F 70% 29.65 in 10.0 mi NW 17.3 mph 25.3 mph N/A   Overcast
4:15 PM 41.0 °F 31.9 °F 32.0 °F 70% 29.65 in 10.0 mi NW 19.6 mph 28.8 mph N/A   Overcast
4:35 PM 41.0 °F 31.1 °F 32.0 °F 70% 29.66 in 10.0 mi NW 23.0 mph 29.9 mph N/A   Overcast
4:36 PM 41.0 °F 31.1 °F 32.0 °F 70% 29.66 in 10.0 mi NW 23.0 mph 29.9 mph N/A   Overcast
4:55 PM 42.8 °F 34.0 °F 32.0 °F 66% 29.66 in 10.0 mi NW 20.7 mph 27.6 mph N/A   Overcast
4:56 PM 42.8 °F 33.5 °F 32.0 °F 66% 29.66 in 10.0 mi NW 23.0 mph 27.6 mph N/A   Overcast
5:18 PM 42.8 °F 33.8 °F 32.0 °F 66% 29.67 in 10.0 mi NW 21.9 mph 27.6 mph N/A   Overcast
5:36 PM 42.8 °F 33.3 °F 30.2 °F 61% 29.68 in 10.0 mi NW 24.2 mph 33.4 mph N/A   Overcast
5:55 PM 41.0 °F 31.9 °F 30.2 °F 65% 29.68 in 10.0 mi NW 19.6 mph 31.1 mph N/A   Overcast
6:15 PM 41.0 °F 31.6 °F 32.0 °F 70% 29.69 in 10.0 mi NW 20.7 mph 26.5 mph N/A   Overcast
6:16 PM 41.0 °F 31.6 °F 32.0 °F 70% 29.69 in 10.0 mi NW 20.7 mph 26.5 mph N/A   Overcast
6:35 PM 41.0 °F 33.5 °F 30.2 °F 65% 29.69 in 10.0 mi NW 13.8 mph - N/A   Overcast
6:40 PM 41.0 °F 33.5 °F 30.2 °F 65% 29.70 in 10.0 mi NW 13.8 mph 20.7 mph N/A   Overcast
6:57 PM 41.0 °F 33.1 °F 32.0 °F 70% 29.70 in 10.0 mi NW 15.0 mph 20.7 mph N/A   Overcast
7:15 PM 41.0 °F 33.1 °F 32.0 °F 70% 29.70 in 10.0 mi NW 15.0 mph 20.7 mph N/A   Overcast
7:35 PM 41.0 °F 33.1 °F 30.2 °F 65% 29.71 in 10.0 mi NW 15.0 mph - N/A   Overcast
7:36 PM 41.0 °F 33.5 °F 30.2 °F 65% 29.71 in 10.0 mi NW 13.8 mph - N/A   Overcast
7:55 PM 39.2 °F 31.2 °F 32.0 °F 75% 29.71 in 10.0 mi WNW 13.8 mph 17.3 mph N/A   Overcast
8:18 PM 39.2 °F 31.2 °F 30.2 °F 70% 29.72 in 10.0 mi WNW 13.8 mph 19.6 mph N/A   Overcast
8:37 PM 39.2 °F 31.2 °F 30.2 °F 70% 29.72 in 10.0 mi WNW 13.8 mph 18.4 mph N/A   Overcast
8:56 PM 39.2 °F 30.5 °F 30.2 °F 70% 29.72 in 10.0 mi WNW 16.1 mph 20.7 mph N/A   Overcast
9:15 PM 39.2 °F 30.8 °F 30.2 °F 70% 29.72 in 10.0 mi NW 15.0 mph - N/A   Overcast
9:35 PM 39.2 °F 32.5 °F 30.2 °F 70% 29.72 in 10.0 mi NW 10.4 mph - N/A   Overcast
9:40 PM 37.4 °F 30.8 °F 30.2 °F 75% 29.72 in 10.0 mi WNW 9.2 mph - N/A   Overcast
9:58 PM 37.4 °F 30.8 °F 30.2 °F 75% 29.73 in 10.0 mi NW 9.2 mph - N/A   Overcast
10:16 PM 37.4 °F 30.8 °F 30.2 °F 75% 29.73 in 10.0 mi NW 9.2 mph - N/A   Mostly Cloudy
10:35 PM 35.6 °F 28.6 °F 30.2 °F 81% 29.73 in 10.0 mi WNW 9.2 mph - N/A   Scattered Clouds
10:36 PM 35.6 °F 28.0 °F 30.2 °F 81% 29.73 in 10.0 mi WNW 10.4 mph - N/A   Scattered Clouds
10:55 PM 35.6 °F 28.6 °F 30.2 °F 81% 29.73 in 10.0 mi WNW 9.2 mph - N/A   Mostly Cloudy
10:56 PM 35.6 °F 29.2 °F 30.2 °F 81% 29.73 in 10.0 mi WNW 8.1 mph - N/A   Mostly Cloudy
11:18 PM 35.6 °F 28.6 °F 30.2 °F 81% 29.73 in 10.0 mi NW 9.2 mph - N/A   Mostly Cloudy
11:36 PM 35.6 °F 29.2 °F 30.2 °F 81% 29.73 in 10.0 mi NW 8.1 mph - N/A   Clear
11:56 PM 33.8 °F 27.0 °F 30.2 °F 87% 29.73 in 10.0 mi NNW 8.1 mph - N/A   Clear